LFMN Airport Information

Runway Information
Runway 04L Length 8995 ft width 148 ft
Elevation 10 ft Threshold 0 ft Heading 45
Runway 22R Length 8995 ft Width 148 ft
Elevation 10 ft Threshold 575 ft Heading 225
Runway 04R Length 9712 ft width 148 ft
Elevation 10 ft Threshold 0 ft Heading 45
Runway 22L Length 9712 ft Width 148 ft
Elevation 12 ft Threshold 0 ft Heading 225
Airport Frequencies
Type A/D Name NICE APP Frequency 124.175 MHZ
Type ATIS Name NICE ATIS Frequency 129.6 MHZ
Type GND Name NICE GND Frequency 121.775 MHZ
Type TWR Name NICE TWR Frequency 118.7 MHZ
Airport Navaids
Type VOR-DME Name Nice Cote D Azur Frequency 109650 KHZ
Type VOR-DME Name Cagnes Sur Mer Frequency 109200 KHZ
Type NDB Name Nice Frequency 399 KHZ
Type VOR-DME Name Nice Frequency 112400 KHZ
Airport Weather Information & NOTAM
ADDS - METARS form results

(1009 UTC 18 August 2018)
 
METAR text: LFMN 181000Z 14006KT 9999 FEW040 28/21 Q1017 NOSIG
Conditions at: LFMN (NICE/COTE D'AZUR, FR) observed 1000 UTC 18 August 2018
Temperature: 28.0°C (82°F)
Dewpoint: 21.0°C (70°F) [RH = 66%]
Pressure (altimeter): 30.03 inches Hg (1017.0 mb)
Winds: from the SE (140 degrees) at 7 MPH (6 knots; 3.1 m/s)
Visibility: 6 or more miles (10+ km)
Ceiling: at least 12,000 feet AGL
Clouds: few clouds at 4000 feet AGL
Weather: no significant weather observed at this time

METAR text: LFMN 180930Z 11004KT 9999 FEW040 28/20 Q1016 NOSIG
Conditions at: LFMN (NICE/COTE D'AZUR, FR) observed 0930 UTC 18 August 2018
Temperature: 28.0°C (82°F)
Dewpoint: 20.0°C (68°F) [RH = 62%]
Pressure (altimeter): 30.00 inches Hg (1016.0 mb)
Winds: from the ESE (110 degrees) at 5 MPH (4 knots; 2.1 m/s)
Visibility: 6 or more miles (10+ km)
Ceiling: at least 12,000 feet AGL
Clouds: few clouds at 4000 feet AGL
Weather: no significant weather observed at this time